Terug naar catalogus

STARLINK-11265

ActiefCommunicatieVLEO
NORAD 60909·PAYLOAD·🇺🇸 United States

Gelanceerd Aug 31, 2024 vanaf Cape Canaveral Space Force Station

Loading…

Volgende Passages (komende 24 uur)

TLE

VersSource: CelesTrak SupGP

Epoch: Sep 15, 2026, 02:39 UTC

1 60909C 24154G   26258.11090278  .00048147  00000+0  39617-3 0  2581
2 60909  53.1576 277.8475 0001124  98.5044 137.2999 15.69711663    17

Volg STARLINK-11265 in realtime met AllMySat

Download on the App Store